Miscellaneous Local Product
Issued by NWS North Platte, NE

Home | Current Version | Previous Version | Text Only | Print | Product List | Glossary On
Versions: 1 2 3 4 5 6 7 8 9 10 11 12 13 14 15 16 17 18 19 20 21 22 23 24 25 26 27 28 29 30 31 32 33 34 35 36 37 38 39 40 41 42 43 44 45 46 47 48 49 50
827
AXUS43 KLBF 220010
MISLBF


WESTERN AND NORTH CENTRAL NEBRASKA HOURLY WEATHER ROUNDUP
NATIONAL WEATHER SERVICE NORTH PLATTE NE
600 PM CST WED FEB 21 2018

NOTE: "FAIR" INDICATES FEW OR NO CLOUDS BELOW 12,000 FEET WITH NO
SIGNIFICANT WEATHER AND/OR OBSTRUCTIONS TO VISIBILITY.

NOTE: STATIONS NOT REPORTING VARIABLES SUCH AS SKY/WEATHER OR
PRESSURE ARE PROVIDED BY RAWS AND APRS NETWORKS AND ARE NOT UNDER
NATIONAL WEATHER SERVICE QUALITY CONTROL.

...OBSERVATIONS IN AND NEAR THE EASTERN PANHANDLE OF NEBRASKA...

CITY           SKY/WX    TMP DP  RH WIND       PRES   REMARKS
PINE RIDGE     FAIR      25  12  58 SW14      30.23R WCI  13
GORDON         FAIR      24  10  56 SW14      30.22S WCI  12
CHADRON        FAIR      11   3  70 NW3       30.22S
ALLIANCE       FAIR      22  12  65 S16       30.19F WCI   8
SIDNEY         FAIR      25  11  55 SE13      30.20S WCI  14
$$

...OBSERVATIONS IN NORTHERN NEBRASKA AND FAR SOUTHERN SOUTH DAKOTA...

CITY           SKY/WX    TMP DP  RH WIND       PRES   REMARKS
WINNER         FAIR      21  10  62 SE12      30.38S WCI   9
VALENTINE      FAIR      24  10  55 S16       30.34R WCI  11
AINSWORTH      FAIR      19   9  65 S12       30.37S WCI   7
O`NEILL        CLOUDY    21  10  61 SE6       30.45S WCI  13
THEDFORD       FAIR      22  10  60 SE6       30.36R WCI  15
BROKEN BOW     CLOUDY    25   9  50 SE10      30.40R WCI  15
ORD            CLOUDY    24   8  50 S6        30.44S WCI  17
ALBION         FAIR      23  10  58 SE6       30.49S WCI  15
$$

...OBSERVATIONS IN SOUTHWEST NEBRASKA AND FAR NORTHEAST COLORADO...

CITY           SKY/WX    TMP DP  RH WIND       PRES   REMARKS
WRAY           FAIR      28   9  43 SE10      30.26S WCI  19
HOLYOKE        FAIR      28  12  50 SE14      30.26R WCI  17
IMPERIAL       FAIR      23  10  57 E8        30.31S WCI  14
OGALLALA       FAIR      24  12  59 SE8       30.32R WCI  15
NORTH PLATTE   CLOUDY    23   8  52 S5        30.37S WCI  17
MCCOOK         CLOUDY    28   5  37 SE15      30.37S WCI  16
LEXINGTON      CLOUDY    28   8  41 SE8       30.41S WCI  20
GOTHENBURG       N/A     25   7  45 SE6         N/A  WCI  18
CALLAWAY         N/A     23  14  69 SE6         N/A  WCI  16
$$

...OBSERVATIONS IN CENTRAL LINCOLN COUNTY AREA...

CITY           SKY/WX    TMP DP  RH WIND       PRES   REMARKS
N.P. AIRPORT   CLOUDY    23   8  52 S5        30.37S WCI  17
$$

...OBSERVATIONS ACROSS THE ROCKIES AND WESTERN HIGH PLAINS...

CITY           SKY/WX    TMP DP  RH WIND       PRES   REMARKS
RAPID CITY     FAIR      12   2  64 S8        30.20S WCI   0
SCOTTSBLUFF    FAIR      24  14  65 E8        30.19F WCI  15
CHEYENNE       FAIR      18  11  74 S9        30.07S WCI   7
DENVER         FAIR      17  10  74 NW12      30.09R WCI   4
BERTHOUD PASS  CLOUDY     1  -8  66 NW6       29.89R WCI -10
COPPER MTN     CLOUDY    18  -4  38 S7        29.89R WCI   8
MONARCH PASS   FAIR      12   5  73 S23       30.01S WCI  -7
ASPEN          CLOUDY    24   8  50 NE5       29.95R WCI  18
LARAMIE        FAIR      14   7  73 N9        30.00R WCI   2
CASPER         FAIR      16   6  65 SW16      30.06F WCI   1
$$

...OBSERVATIONS ACROSS THE NORTHERN PLAINS...

CITY           SKY/WX    TMP DP  RH WIND       PRES   REMARKS
BISMARCK       FAIR      10   0  63 SE8       30.40F WCI  -2
FARGO          FAIR      12   2  64 S9        30.53F WCI   0
PIERRE         FAIR       6   0  76 E8        30.36F WCI  -7
SIOUX FALLS    MOCLDY    15   2  56 SE6       30.55R WCI   6
$$

...OBSERVATIONS ACROSS THE CENTRAL AND SOUTHERN PLAINS...

CITY           SKY/WX    TMP DP  RH WIND       PRES   REMARKS
OMAHA          CLOUDY    25  14  63 E7        30.58R WCI  17
GRAND ISLAND   FAIR      26   8  46 SE9       30.49R WCI  17
KANSAS CITY    MOCLDY    27  22  81 NE10      30.52S WCI  17
WICHITA        FRZ RAIN  26  19  74 NE14      30.42S WCI  14
DODGE CITY     CLOUDY    25   0  33 N13       30.35S WCI  14
OKLAHOMA CITY  CLOUDY    24  21  88 N15       30.34R WCI  11
DALLAS         LGT RAIN  38  36  92 NW14      30.25R WCI  30
AMARILLO       CLOUDY    29   5  36 E12       30.24S WCI  19
$$




USA.gov is the U.S. government's official web portal to all federal, state and local government web resources and services.